Evans Head Observation History
Time Wind Speed Temp Pressure Rel. Hum Rain
21/11:00pm N 8-13 kts 25.1°c 1007.5 hPa 65% 0.0mm
21/10:30pm NNW 6-10 kts 26.6°c 1007.1 hPa 61% 0.0mm
21/10:00pm NNW 10-13 kts 26.9°c 1006.7 hPa 59% 0.0mm
21/09:30pm NNW 9-13 kts 26.4°c 1006.7 hPa 56% 0.0mm
21/09:00pm NNW 9-15 kts 26.4°c 1006.6 hPa 55% 0.0mm
21/08:30pm N 10-14 kts 25.8°c 1006.7 hPa 82% 0.0mm
21/08:00pm N 6-8 kts 26.4°c 1006.3 hPa 80% 0.0mm
21/07:30pm N 11-16 kts 27.0°c 1005.9 hPa 77% 0.0mm
21/07:00pm N 11-17 kts 27.7°c 1005.4 hPa 76% 0.0mm
21/06:30pm N 13-19 kts 28.2°c 1005.1 hPa 73% 0.0mm
21/06:00pm N 9-15 kts 28.8°c 1004.7 hPa 71% 0.0mm
21/05:30pm N 10-16 kts 30.6°c 1004.1 hPa 67% 0.0mm
21/05:00pm N 13-22 kts 31.0°c 1004.5 hPa 63% 0.0mm
21/04:30pm NNE 9-14 kts 32.7°c 1004.7 hPa 57% 0.0mm
21/04:00pm NNE 11-19 kts 32.2°c 1004.9 hPa 54% 0.0mm
21/03:30pm NNE 14-21 kts 33.4°c 1005.2 hPa 49% 0.0mm
21/03:00pm NNE 12-18 kts 33.7°c 1005.7 hPa 44% 0.0mm
21/02:30pm NNE 10-17 kts 34.6°c 1006.0 hPa 43% 0.0mm
21/02:00pm NNE 11-17 kts 34.0°c 1006.5 hPa 45% 0.0mm
21/01:30pm NNE 11-17 kts 33.8°c 1007.1 hPa 47% 0.0mm
21/01:00pm NNE 11-17 kts 34.2°c 1007.3 hPa 50% 0.0mm
21/12:30pm NNE 9-14 kts 34.5°c 1007.5 hPa 50% 0.0mm
21/12:00pm N 9-17 kts 36.1°c 1007.7 hPa 45% 0.0mm
21/11:30am N 8-13 kts 35.2°c 1007.9 hPa 47% 0.0mm
21/11:00am N 7-13 kts 33.6°c 1008.1 hPa 52% 0.0mm
21/10:30am NNE 9-13 kts 30.8°c 1008.2 hPa 58% 0.0mm
21/10:00am N 7-13 kts 32.3°c 1008.2 hPa 59% 0.0mm
21/09:30am NNW 6-10 kts 30.9°c 1008.1 hPa 64% 0.0mm
21/09:00am N 7-12 kts 29.6°c 1008.4 hPa 68% 0.6mm
21/08:30am N 7-10 kts 28.1°c 1008.3 hPa 73% 0.6mm
21/08:00am N 3-5 kts 26.4°c 1008.2 hPa 80% 0.6mm
21/07:30am N 5-7 kts 24.4°c 1007.8 hPa 87% 0.6mm
21/07:00am NE 3-4 kts 23.6°c 1007.6 hPa 90% 0.6mm
21/06:30am NNE 5-6 kts 22.5°c 1007.2 hPa 92% 0.6mm
21/06:00am NNE 5-8 kts 22.4°c 1006.9 hPa 91% 0.6mm
21/05:30am N 5-8 kts 22.4°c 1006.6 hPa 90% 0.6mm
21/05:00am NNW 4-7 kts 22.7°c 1006.2 hPa 88% 0.6mm
21/04:30am NNW 6-10 kts 23.5°c 1005.6 hPa 87% 0.6mm
21/04:00am NNW 8-14 kts 23.9°c 1005.3 hPa 87% 0.6mm
21/03:30am NNW 6-12 kts 23.3°c 1006.0 hPa 90% 0.6mm
21/03:00am N 3-5 kts 22.8°c 1006.0 hPa 89% 0.6mm
21/02:30am NNW 5-7 kts 22.9°c 1006.4 hPa 90% 0.6mm
21/02:00am NNW 4-5 kts 23.0°c 1006.3 hPa 89% 0.6mm
21/01:30am NNE 5-7 kts 23.4°c 1006.3 hPa 88% 0.6mm
21/01:00am N 3-5 kts 23.6°c 1006.5 hPa 87% 0.6mm
21/12:30am N 4-5 kts 23.6°c 1006.7 hPa 88% 0.6mm
21/12:00am N 4-7 kts 23.8°c 1006.9 hPa 88% 0.6mm
Time Wind Speed Temp Pressure Rel. Hum Rain
20/11:30pm NNW 6-9 kts 24.0°c 1006.8 hPa 87% 0.6mm
20/11:00pm NNW 5-8 kts 24.4°c 1007.1 hPa 86% 0.6mm
20/10:30pm NNW 6-9 kts 24.7°c 1007.2 hPa 85% 0.6mm
20/10:00pm NNW 10-16 kts 25.1°c 1007.0 hPa 84% 0.6mm
20/09:30pm NNW 11-18 kts 25.0°c 1006.4 hPa 84% 0.6mm
20/09:00pm N 10-15 kts 24.4°c 1006.2 hPa 86% 0.6mm
20/08:30pm N 11-17 kts 24.3°c 1005.8 hPa 85% 0.6mm
20/08:00pm N 13-20 kts 24.3°c 1005.0 hPa 82% 0.6mm
20/07:30pm N 11-15 kts 25.2°c 1004.8 hPa 86% 0.6mm
20/07:00pm N 8-12 kts 26.3°c 1004.4 hPa 89% 0.6mm
20/06:30pm N 9-13 kts 25.8°c 1004.3 hPa 91% 0.6mm
20/06:00pm N 13-18 kts 24.9°c 1004.5 hPa 91% 0.6mm
20/05:30pm NNE 5-9 kts 25.2°c 1004.2 hPa 92% 0.4mm
20/05:00pm N 7-9 kts 25.0°c 1004.7 hPa 88% 0.2mm
20/04:30pm N 9-15 kts 26.4°c 1004.4 hPa 79% 0.0mm
20/04:00pm NNE 8-11 kts 27.9°c 1003.8 hPa 74% 0.0mm
20/03:30pm NNE 7-11 kts 29.7°c 1004.0 hPa 71% 0.0mm
20/03:00pm NNE 8-12 kts 30.7°c 1004.5 hPa 65% 0.0mm
20/02:30pm NNE 9-15 kts 31.5°c 1004.7 hPa 61% 0.0mm
20/02:00pm NE 9-14 kts 32.9°c 1004.8 hPa 61% 0.0mm
20/01:30pm NE 9-13 kts 33.8°c 1005.2 hPa 55% 0.0mm
20/01:00pm NE 11-16 kts 32.5°c 1005.4 hPa 58% 0.0mm
20/12:30pm NNE 7-11 kts 33.3°c 1005.7 hPa 54% 0.0mm
20/12:00pm N 11-16 kts 32.9°c 1006.2 hPa 54% 0.0mm
20/11:30am NNW 9-13 kts 33.7°c 1006.4 hPa 55% 0.0mm
20/11:00am N 11-15 kts 32.1°c 1006.5 hPa 59% 0.0mm
20/10:30am NNW 10-17 kts 30.9°c 1006.7 hPa 62% 0.0mm
20/10:00am NNW 6-10 kts 29.7°c 1006.7 hPa 66% 0.0mm
20/09:30am NNW 7-16 kts 30.1°c 1006.8 hPa 69% 0.0mm
20/09:00am NNW 7-10 kts 28.4°c 1006.7 hPa 73% 0.0mm
20/08:30am NNE 5-7 kts 27.2°c 1006.7 hPa 80% 0.0mm
20/08:00am N 6-10 kts 25.3°c 1006.5 hPa 86% 0.0mm
20/07:30am NNE 4-6 kts 24.1°c 1006.5 hPa 93% 0.0mm
20/07:00am NNW 5-6 kts 23.2°c 1006.3 hPa 96% 0.0mm
20/06:30am N 6-9 kts 22.6°c 1006.0 hPa 96% 0.0mm
20/06:00am N 6-9 kts 22.5°c 1005.6 hPa 96% 0.0mm
20/05:30am N 6-8 kts 22.3°c 1005.6 hPa 95% 0.0mm
20/05:00am N 7-11 kts 22.4°c 1005.1 hPa 95% 0.0mm
20/04:30am N 9-11 kts 22.4°c 1005.1 hPa 95% 0.0mm
20/04:00am N 7-11 kts 22.4°c 1005.5 hPa 95% 0.0mm
20/03:30am N 7-9 kts 22.3°c 1005.1 hPa 94% 0.0mm
20/03:00am N 7-10 kts 22.4°c 1005.1 hPa 94% 0.0mm
20/02:30am N 7-10 kts 22.5°c 1005.3 hPa 94% 0.0mm
20/02:00am N 8-11 kts 22.6°c 1005.3 hPa 93% 0.0mm
20/01:30am N 8-11 kts 22.8°c 1005.5 hPa 93% 0.0mm
20/01:00am NNE 7-9 kts 23.2°c 1005.6 hPa 91% 0.0mm
20/12:30am N 8-11 kts 23.4°c 1006.0 hPa 89% 0.0mm
20/12:00am N 10-15 kts 23.6°c 1005.9 hPa 89% 0.0mm
Time Wind Speed Temp Pressure Rel. Hum Rain
19/11:30pm N 8-11 kts 23.6°c 1006.0 hPa 90% 0.0mm
19/11:00pm N 9-12 kts 23.9°c 1006.2 hPa 89% 0.0mm
19/10:30pm N 9-12 kts 23.6°c 1006.3 hPa 90% 0.0mm
19/10:00pm N 8-11 kts 23.6°c 1005.9 hPa 89% 0.0mm
19/09:30pm N 8-11 kts 23.7°c 1005.9 hPa 88% 0.0mm
19/09:00pm N 9-12 kts 23.8°c 1005.5 hPa 88% 0.0mm
19/08:30pm N 10-14 kts 24.1°c 1004.9 hPa 86% 0.0mm
19/08:00pm N 10-17 kts 24.3°c 1004.6 hPa 85% 0.0mm
19/07:30pm N 10-17 kts 25.0°c 1004.4 hPa 82% 0.0mm
19/07:00pm NNE 11-16 kts 26.1°c 1004.1 hPa 76% 0.0mm
19/06:30pm N 12-20 kts 27.0°c 1003.8 hPa 74% 0.0mm
19/06:00pm NNE 13-19 kts 25.7°c 1003.7 hPa 79% 0.0mm
19/05:30pm NNE 11-16 kts 25.9°c 1003.7 hPa 79% 0.0mm
19/05:00pm NNE 9-16 kts 28.7°c 1003.3 hPa 70% 0.0mm
19/04:30pm NE 8-12 kts 29.7°c 1003.6 hPa 68% 0.0mm
19/04:00pm NE 7-11 kts 28.3°c 1004.0 hPa 77% 0.0mm
19/03:30pm E 7-10 kts 26.4°c 1004.1 hPa 79% 0.0mm
19/03:00pm E 9-13 kts 26.3°c 1004.6 hPa 79% 0.0mm
19/02:30pm E 9-12 kts 26.6°c 1004.7 hPa 79% 0.0mm
19/02:00pm ESE 8-11 kts 25.3°c 1005.0 hPa 79% 0.0mm
19/01:30pm SE 11-15 kts 26.2°c 1005.3 hPa 77% 0.0mm
19/01:00pm SE 10-14 kts 26.8°c 1005.4 hPa 77% 0.0mm
19/12:30pm SE 9-12 kts 27.1°c 1005.7 hPa 76% 0.0mm
19/12:00pm SSE 9-12 kts 26.3°c 1005.8 hPa 76% 0.0mm
19/11:30am SSE 9-12 kts 26.2°c 1006.2 hPa 78% 0.0mm
19/11:00am S 10-13 kts 25.7°c 1006.2 hPa 80% 0.0mm
19/10:30am SSE 9-13 kts 25.5°c 1006.5 hPa 81% 0.0mm
19/10:00am SSE 9-12 kts 24.6°c 1006.1 hPa 84% 0.0mm
19/09:30am SSE 7-9 kts 24.6°c 1005.9 hPa 81% 0.0mm
19/09:00am SSE 5-8 kts 25.2°c 1005.8 hPa 83% 61.0mm
19/08:30am SW 3-7 kts 23.8°c 1005.9 hPa 86% 61.0mm
19/08:00am WSW 4-5 kts 22.6°c 1006.0 hPa 93% 61.0mm
19/07:30am WSW 5-6 kts 21.9°c 1005.6 hPa 96% 61.0mm
19/07:00am WSW 4-8 kts 21.5°c 1005.1 hPa 97% 61.0mm
19/06:30am WSW 4-5 kts 21.0°c 1004.8 hPa 97% 61.0mm
19/06:00am W 5-7 kts 21.1°c 1004.5 hPa 97% 61.0mm
19/05:30am W 5-6 kts 21.4°c 1004.2 hPa 97% 61.0mm
19/05:00am WNW 5-7 kts 21.5°c 1003.8 hPa 97% 61.0mm
19/04:30am NW 4-7 kts 21.3°c 1003.8 hPa 97% 61.0mm
19/04:00am N 6-9 kts 21.4°c 1003.7 hPa 97% 61.0mm
19/03:30am N 5-9 kts 21.6°c 1003.7 hPa 97% 61.0mm
19/03:00am NNW 5-7 kts 21.5°c 1003.7 hPa 97% 61.0mm
19/02:30am NNE 7-11 kts 21.2°c 1004.0 hPa 96% 61.0mm
19/02:00am N 7-10 kts 21.5°c 1004.0 hPa 97% 61.0mm
19/01:30am NE 8-17 kts 22.3°c 1004.7 hPa 97% 59.4mm
19/01:00am ENE 6-8 kts 21.8°c 1005.0 hPa 97% 58.8mm
19/12:30am E 5-9 kts 21.4°c 1005.5 hPa 97% 58.6mm
19/12:00am NNE 7-13 kts 21.4°c 1005.6 hPa 97% 58.6mm